Regional Weather Roundup
Issued by NWS Newport/Morehead, NC

Current Version | Previous Version | Text Only | Print | Product List | Glossary Off
Versions: 1 2 3 4 5 6 7 8 9 10 11 12 13 14 15 16 17 18 19 20 21 22 23 24 25 26 27 28 29 30 31 32 33 34 35 36 37 38 39 40 41 42 43 44 45 46 47 48 49 50
000 ASUS42 KMHX 272225 RWRMHX WEATHER ROUNDUP FOR EASTERN NORTH CAROLINA NATIONAL WEATHER SERVICE NEWPORT/MOREHEAD CITY NC 600 PM EDT THU APR 27 2017 NOTE: "FAIR" INDICATES FEW OR NO CLOUDS BELOW 12,000 FEET WITH NO SIGNIFICANT WEATHER AND/OR OBSTRUCTIONS TO VISIBILITY NCZ015>017-031-032-045>047-102-103-272300- NORTH COAST CITY SKY/WX TMP DP RH WIND PRES REMARKS EDENTON CLOUDY 82 63 53 SW13 29.88R ELIZABETH CITY SUNNY 80 66 62 S12 29.87R KITTY HAWK CLEAR 77 62 59 S9G18 29.88S MANTEO SUNNY 76 65 68 S14G25 29.90S $$ NCZ045>047-081-094-103-104-272300- CENTRAL COAST CITY SKY/WX TMP DP RH WIND PRES REMARKS FRISCO SUNNY 76 67 73 S8 29.93F HAZE $$ NCZ095-097-098-100-101-272300- SOUTHERN COAST CITY SKY/WX TMP DP RH WIND PRES REMARKS BEAUFORT SUNNY 76 70 82 S14 29.94R CEDAR ISLAND NOT AVBL JACKSONVILLE CLOUDY 79 65 62 SW13G21 29.91R PINEY ISLAND PTCLDY N/A N/A N/A S16G23 29.92R WILMINGTON CLOUDY 78 62 57 SW14 29.93R $$ NCZ011>013-027>030-043-044-078>080-089-090>093-098-272300- COASTAL PLAIN CITY SKY/WX TMP DP RH WIND PRES REMARKS AHOSKIE N/A 78 59 51 S6 29.86S CLINTON CLOUDY 79 66 62 S3 29.90R ELIZABETHTOWN PTSUNNY 79 65 60 S8 29.90S GOLDSBORO CLOUDY 81 59 47 SW8 29.86R GREENVILLE MOSUNNY 82 57 42 S15 29.88F HAVELOCK NOT AVBL KENANSVILLE MOSUNNY 79 63 57 CALM 29.90R KINSTON MOSUNNY 82 57 42 SW12 29.89R NEW BERN SUNNY 79 66 64 S13 29.92R RICHLANDS PTSUNNY 79 64 60 SW14G21 29.90R ROCKY MOUNT PTSUNNY 79 60 52 S8 29.86S WASHINGTON SUNNY 80 61 53 S8 29.88S WHITEVILLE CLOUDY 79 65 61 S8 29.90S $$ AMZ130-135-150-152-154-156-158-170-250-252-270-ANZ085-086-088-633-658-670-272300- MARINE OBSERVATIONS STATION/POSITION TIME TEMP WIND PRES WAVE SWELL AIR SEA DIR/SP/G HT/PER HT/PER (UTC) (F) (DEG/KT/KT) (MB) (FT/S) (FT/S) CHESAPEAKE LIGHT NOT AVBL 64 E VA BEACH 2150 62 58 160/ 12/ 12 1012.9 4/ 8 3/ 8 DUCK 2200 77 60 190/ 13/ 18 1011.0 2 E DUCK 2200 63 N/A 4/ 8 2/11 OREGON INLET 2200 74 72 180/ 18/ 21 1012.8 13E OREGON INLT 2148 64 N/A 5/ 8 3/ 8 HATTERAS CG 2200 76 70 200/ 6/ 9 1013.5 DIAMOND BUOY 2150 78 78 190/ 17/ 21 1013.5 5/ 8 3/ 8 CAPE LOOKOUT 2200 75 210/ 10/ 15 1013.5 BEAUFORT LAB 2200 74 71 200/ 10/ 15 1013.0 30 SE NEW RVR IN 2208 74 220/ 10/ 14 1014.0 30 SE NEW RVR IN 2213 72 N/A 4/ 9 2/11 27 SE WRIGHTSVLE 2208 74 73 190/ 10/ 14 1013.3 5 SE WRIGHTSVLE 2208 72 72 200/ 8/ 12 1013.6 225 S CAPE HAT 2150 74 75 160/ 14/ 16 1016.6 4/ 8 3/ 8 41 SE CHARLESTON 2200 76 74 180/ 10/ 12 1013.5 $$

USA.gov is the U.S. government's official web portal to all federal, state and local government web resources and services.